Location: Colonial Woods South
(40.1818°N, 76.8289°W)
Time: 22:26:05
(UTC+00:00)

Hubble Space Telescope - Visible Passes

Search period start: 21 April 2026 00:00
Search period end: 01 May 2026 00:00
Orbit: 474 x 477 km, 28.5° (Epoch: 21 April)

Date Brightness Start Highest point End Pass type
(mag) Time Alt. Az. Time Alt. Az. Time Alt. Az.
26 Apr 2.7 01:20:01 10° SSW 01:21:29 13° S 01:21:29 13° S visible
27 Apr 2.6 00:48:47 10° SSW 00:50:37 13° S 00:52:08 11° SSE visible
29 Apr 2.8 01:25:34 10° SSW 01:27:07 12° S 01:27:13 12° S visible
30 Apr 2.8 00:54:16 10° SSW 00:55:50 12° S 00:57:24 10° SSE visible
